GW4543 Weather Reports


Display with metric or nautical units.
time (UTC)temp
F
wind
direction
speed
MPH
gust
MPH
rain 1hr
in
rain 24hr
in
rain mn
in
humidity
%
barometer
mb
20260506155116 53 47 4.0 9.0 0.00 0.14 0.14 97 1015.7
20260506153218 53 314 8.0 14.0 0.00 0.14 0.14 96 1015.7
20260506152715 53 305 3.0 6.0 0.05 0.14 0.14 96 1016.4
20260506152212 52 91 4.0 9.0 0.05 0.14 0.14 96 1016.0
20260506151712 53 255 2.0 5.0 0.00 0.13 0.13 96 1016.4
20260506151208 53 56 2.0 5.0 0.00 0.13 0.13 96 1016.7
20260506150704 52 77 1.0 5.0 0.00 0.13 0.13 95 1017.4
20260506150201 52 189 1.0 5.0 0.00 0.13 0.13 95 1017.7
20260506145658 53 331 3.0 6.0 0.12 0.13 0.13 94 1017.7
20260506145154 53 112 2.0 5.0 0.71 0.12 0.12 93 1016.4
20260506144652 53 347 2.0 7.0 0.66 0.11 0.11 91 1017.7
20260506144149 53 174 1.0 3.0 0.00 0.00 0.00 90 1018.4
20260506143646 53 251 3.0 3.0 0.00 0.00 0.00 90 1018.1
20260506143144 53 336 5.0 6.0 0.00 0.00 0.00 90 1017.7
20260506142643 53 239 2.0 5.0 0.00 0.00 0.00 89 1017.7
20260506142140 53 275 1.0 6.0 0.00 0.00 0.00 89 1018.1
20260506141637 53 35 7.0 8.0 0.00 0.00 0.00 89 1016.0
20260506141136 53 314 3.0 5.0 0.00 0.00 0.00 89 1015.7
20260506140633 53 136 1.0 6.0 0.00 0.00 0.00 89 1016.0
20260506140130 53 3 4.0 6.0 0.00 0.00 0.00 89 1016.4
20260506135627 53 239 3.0 8.0 0.00 0.00 0.00 88 1016.7
20260506135123 53 350 5.0 7.0 0.00 0.00 0.00 88 1017.0
20260506134620 53 23 3.0 10.0 0.00 0.00 0.00 88 1016.7
20260506134115 53 250 2.0 6.0 0.00 0.00 0.00 88 1016.4
20260506133613 53 340 3.0 8.0 0.00 0.00 0.00 88 1016.0
20260506133110 53 184 1.0 3.0 0.00 0.00 0.00 87 1016.0
20260506132607 53 267 4.0 8.0 0.00 0.00 0.00 87 1016.4
20260506132104 53 201 2.0 11.0 0.00 0.00 0.00 87 1015.7
20260506131601 53 206 1.0 5.0 0.00 0.00 0.00 86 1015.7
20260506131057 54 297 2.0 9.0 0.00 0.00 0.00 86 1015.7
20260506130555 53 203 1.0 8.0 0.00 0.00 0.00 86 1015.7
20260506130052 54 212 4.0 10.0 0.00 0.00 0.00 86 1015.7
20260506125550 54 56 6.0 11.0 0.00 0.00 0.00 85 1015.0
20260506125048 54 280 5.0 7.0 0.00 0.00 0.00 85 1015.0
20260506124545 54 37 5.0 9.0 0.00 0.00 0.00 84 1015.3
20260506124043 55 61 5.0 9.0 0.00 0.00 0.00 83 1015.3
20260506123540 55 254 3.0 14.0 0.00 0.00 0.00 83 1015.0
20260506123039 55 201 6.0 15.0 0.00 0.00 0.00 82 1015.0
20260506122535 55 195 3.0 5.0 0.00 0.00 0.00 82 1015.0
20260506122033 55 119 3.0 8.0 0.00 0.00 0.00 81 1015.0
20260506121531 55 49 3.0 6.0 0.00 0.00 0.00 81 1014.7
20260506121026 55 43 2.0 6.0 0.00 0.00 0.00 81 1014.7
20260506120525 55 17 5.0 8.0 0.00 0.00 0.00 81 1014.2
20260506120022 55 12 5.0 7.0 0.00 0.00 0.00 81 1014.7
20260506115520 56 184 7.0 13.0 0.00 0.00 0.00 81 1014.7
20260506115018 56 291 7.0 9.0 0.00 0.00 0.00 81 1015.0
20260506114515 56 38 2.0 14.0 0.00 0.00 0.00 81 1014.7
20260506114014 56 103 5.0 14.0 0.00 0.00 0.00 81 1014.7
20260506113511 56 44 3.0 9.0 0.00 0.00 0.00 81 1014.7
20260506113008 56 102 1.0 6.0 0.00 0.00 0.00 80 1014.2
20260506112504 56 34 5.0 15.0 0.00 0.00 0.00 80 1014.2
20260506112002 56 320 8.0 11.0 0.00 0.00 0.00 80 1013.9
20260506111500 56 207 5.0 10.0 0.00 0.00 0.00 80 1013.9
20260506110956 57 198 2.0 6.0 0.00 0.00 0.00 82 1013.9
20260506110454 57 88 3.0 13.0 0.00 0.00 0.00 82 1013.9
20260506105951 57 88 4.0 9.0 0.00 0.00 0.00 81 1013.6
20260506105447 57 289 2.0 9.0 0.00 0.00 0.00 82 1013.9
20260506104945 57 234 2.0 6.0 0.00 0.00 0.00 82 1013.6
20260506104443 57 31 5.0 8.0 0.00 0.00 0.00 81 1013.2
20260506103941 57 321 3.0 6.0 0.00 0.00 0.00 81 1013.2
20260506103437 57 6 3.0 7.0 0.00 0.00 0.00 80 1013.6
20260506102934 57 234 2.0 7.0 0.00 0.00 0.00 81 1013.2
20260506102433 57 81 2.0 6.0 0.00 0.00 0.00 81 1013.2
20260506101929 57 189 3.0 10.0 0.00 0.00 0.00 81 1012.9
20260506101426 57 208 2.0 15.0 0.00 0.00 0.00 81 1012.9
20260506100923 57 117 4.0 9.0 0.00 0.00 0.00 81 1012.9
20260506100421 57 22 7.0 8.0 0.00 0.00 0.00 81 1012.9
20260506095919 57 193 2.0 5.0 0.00 0.00 0.00 82 1012.9
20260506095417 58 202 3.0 8.0 0.00 0.00 0.00 82 1012.5
20260506094913 57 355 2.0 7.0 0.00 0.00 0.00 82 1012.5
20260506094412 58 57 6.0 13.0 0.00 0.00 0.00 82 1012.5
20260506093909 58 189 6.0 14.0 0.00 0.00 0.00 82 1012.5
20260506093407 58 39 6.0 9.0 0.00 0.00 0.00 83 1012.5
20260506092904 58 210 1.0 3.0 0.00 0.00 0.00 83 1012.5
20260506092402 58 303 3.0 9.0 0.00 0.00 0.00 82 1012.2
20260506091858 58 276 9.0 11.0 0.00 0.00 0.00 82 1012.5
20260506091357 58 75 3.0 9.0 0.00 0.00 0.00 82 1012.2
20260506090853 58 309 7.0 10.0 0.00 0.00 0.00 82 1012.2
20260506090351 58 248 4.0 6.0 0.00 0.00 0.00 82 1012.2
20260506085848 58 162 4.0 9.0 0.00 0.00 0.00 83 1012.2
20260506085344 58 29 4.0 10.0 0.00 0.00 0.00 83 1012.2
20260506084841 59 330 3.0 13.0 0.00 0.00 0.00 83 1012.2
20260506084338 59 176 3.0 7.0 0.00 0.00 0.00 83 1012.2
20260506083834 59 243 4.0 8.0 0.00 0.00 0.00 83 1012.2
20260506083331 59 193 2.0 7.0 0.00 0.00 0.00 83 1012.2
20260506082829 59 266 4.0 9.0 0.00 0.00 0.00 83 1011.9
20260506082325 59 11 3.0 8.0 0.00 0.00 0.00 83 1011.9
20260506081821 59 125 5.0 8.0 0.00 0.00 0.00 83 1012.2
20260506081320 59 189 4.0 8.0 0.00 0.00 0.00 84 1011.9
20260506080817 60 313 6.0 14.0 0.00 0.00 0.00 84 1012.2
20260506080313 60 265 3.0 5.0 0.00 0.00 0.00 84 1012.2
20260506073257 60 283 2.0 5.0 0.00 0.00 0.00 84 1011.9
20260506072754 60 232 1.0 2.0 0.00 0.00 0.00 84 1011.5
20260506072252 60 178 1.0 3.0 0.00 0.00 0.00 84 1011.5
20260506071749 60 182 1.0 3.0 0.00 0.00 0.00 84 1011.5
20260506071247 60 122 3.0 3.0 0.00 0.00 0.00 84 1011.5
20260506070744 60 64 2.0 3.0 0.00 0.00 0.00 84 1011.5
20260506070241 60 102 3.0 7.0 0.00 0.00 0.00 84 1011.5
20260506062218 61 252 2.0 6.0 0.00 0.00 0.00 84 1011.2
20260506061714 61 56 2.0 6.0 0.00 0.00 0.00 84 1011.5
20260506061211 61 308 2.0 3.0 0.00 0.00 0.00 83 1011.5
20260506060710 61 80 2.0 3.0 0.00 0.00 0.00 83 1011.5
20260506060206 62 111 1.0 8.0 0.00 0.00 0.00 83 1011.5
20260506051138 63 280 2.0 7.0 0.00 0.00 0.00 81 1011.5
20260506050637 63 317 4.0 8.0 0.00 0.00 0.00 81 1011.5
20260506050133 64 31 4.0 7.0 0.00 0.00 0.00 81 1011.9
20260506045127 64 17 4.0 8.0 0.00 0.00 0.00 81 1011.9
20260506044625 64 29 2.0 3.0 0.00 0.00 0.00 81 1011.9
20260506044121 64 2 4.0 6.0 0.00 0.00 0.00 81 1011.5
20260506043619 65 39 2.0 7.0 0.00 0.00 0.00 81 1011.5
20260506043117 65 159 3.0 7.0 0.00 0.00 0.00 81 1011.2
20260506042615 65 279 1.0 6.0 0.00 0.00 0.00 81 1011.2
20260506042113 66 28 4.0 7.0 0.00 0.00 0.00 80 1011.5
20260506041612 66 6 4.0 8.0 0.00 0.00 0.00 80 1011.5
20260506041108 66 237 2.0 6.0 0.00 0.00 0.00 79 1011.5
20260506040606 66 67 4.0 10.0 0.00 0.00 0.00 79 1011.5
20260506035559 67 66 2.0 5.0 0.00 0.00 0.00 78 1011.2
20260506035055 67 21 3.0 7.0 0.00 0.00 0.00 78 1011.2
20260506034553 67 47 5.0 8.0 0.00 0.00 0.00 78 1011.2
20260506034050 67 39 0.0 3.0 0.00 0.00 0.00 78 1010.8
20260506033547 67 157 2.0 6.0 0.00 0.00 0.00 77 1010.5
20260506033044 68 16 3.0 5.0 0.00 0.00 0.00 77 1010.8
20260506032541 68 47 3.0 6.0 0.00 0.00 0.00 76 1010.5
20260506032038 68 29 4.0 9.0 0.00 0.00 0.00 76 1010.5
20260506031536 68 257 3.0 6.0 0.00 0.00 0.00 76 1010.2
20260506031032 68 251 1.0 8.0 0.00 0.00 0.00 76 1010.5
20260506030531 68 135 3.0 6.0 0.00 0.00 0.00 76 1010.2
20260506030028 68 11 3.0 6.0 0.00 0.00 0.00 76 1009.8
20260506025525 69 337 3.0 7.0 0.00 0.00 0.00 75 1010.2
20260506025020 69 91 4.0 6.0 0.00 0.00 0.00 75 1009.8
20260506024518 69 207 1.0 7.0 0.00 0.00 0.00 75 1009.8
20260506024014 69 201 1.0 6.0 0.00 0.00 0.00 75 1009.8
20260506023510 69 354 3.0 5.0 0.00 0.00 0.00 75 1009.8
20260506023008 69 50 3.0 7.0 0.00 0.00 0.00 74 1009.4
20260506022505 70 32 4.0 8.0 0.00 0.00 0.00 74 1009.8
20260506022002 70 77 5.0 9.0 0.00 0.00 0.00 75 1009.4
20260506021500 70 140 3.0 7.0 0.00 0.00 0.00 75 1009.4
20260506020957 71 84 4.0 8.0 0.00 0.00 0.00 75 1009.4
20260506020454 71 65 2.0 7.0 0.00 0.00 0.00 75 1009.0
20260506015951 71 71 4.0 6.0 0.00 0.00 0.00 74 1008.7
20260506015449 71 40 3.0 7.0 0.00 0.00 0.00 74 1008.7
20260506014945 72 163 4.0 6.0 0.00 0.00 0.00 74 1008.4
20260506014442 72 160 1.0 5.0 0.00 0.00 0.00 73 1008.4
20260506013939 72 160 2.0 6.0 0.00 0.00 0.00 72 1008.4
20260506013437 73 22 6.0 8.0 0.00 0.00 0.00 72 1008.0
20260506012933 73 150 1.0 6.0 0.00 0.00 0.00 72 1008.0
20260506012429 73 178 3.0 5.0 0.00 0.00 0.00 73 1008.0
20260506011926 73 220 1.0 6.0 0.00 0.00 0.00 72 1008.0
20260506011424 73 193 0.0 3.0 0.00 0.00 0.00 71 1007.7
20260506010920 73 312 5.0 8.0 0.00 0.00 0.00 71 1007.4
20260506010420 74 302 3.0 6.0 0.00 0.00 0.00 71 1007.7
20260506005915 74 14 3.0 5.0 0.00 0.00 0.00 71 1007.7
20260506005413 74 300 3.0 6.0 0.00 0.00 0.00 71 1007.7
20260506004908 75 51 4.0 6.0 0.00 0.00 0.00 71 1007.4
20260506004407 75 48 6.0 10.0 0.00 0.00 0.00 70 1007.4
20260506003902 75 262 2.0 9.0 0.00 0.00 0.00 70 1007.4
20260506003358 75 293 5.0 7.0 0.00 0.00 0.00 69 1007.0
20260506002855 76 19 2.0 5.0 0.00 0.00 0.00 68 1007.0
20260506002351 76 255 2.0 6.0 0.00 0.00 0.00 66 1007.4
20260506001847 76 53 1.0 5.0 0.00 0.00 0.00 66 1007.0
20260506001344 77 45 2.0 5.0 0.00 0.00 0.00 66 1006.7
20260506000841 77 159 1.0 3.0 0.00 0.00 0.00 66 1007.0
20260506000340 77 49 2.0 5.0 0.00 0.00 0.00 65 1007.0
20260505235835 77 147 3.0 9.0 0.00 0.00 0.00 65 1007.0
20260505235333 78 125 6.0 9.0 0.00 0.00 0.00 66 1007.0
20260505234830 78 184 2.0 6.0 0.00 0.00 0.00 66 1007.0
20260505234328 79 54 3.0 9.0 0.00 0.00 0.00 65 1006.7
20260505233824 79 139 4.0 9.0 0.00 0.00 0.00 65 1006.7
20260505233322 80 290 2.0 9.0 0.00 0.00 0.00 66 1006.3
20260505232819 80 192 3.0 10.0 0.00 0.00 0.00 65 1006.3
20260505232317 80 315 6.0 9.0 0.00 0.00 0.00 65 1006.7
20260505231813 81 327 1.0 6.0 0.00 0.00 0.00 66 1006.3
20260505231312 81 215 2.0 8.0 0.00 0.00 0.00 66 1006.3
20260505230810 82 19 6.0 8.0 0.00 0.00 0.00 65 1006.3
20260505230306 84 336 6.0 11.0 0.00 0.00 0.00 63 1006.0
20260505225803 84 304 3.0 7.0 0.00 0.00 0.00 60 1005.7
20260505225300 84 173 3.0 5.0 0.00 0.00 0.00 57 1006.0
20260505224755 84 350 1.0 7.0 0.00 0.00 0.00 56 1006.0
20260505224253 84 294 7.0 10.0 0.00 0.00 0.00 54 1006.0
20260505223750 86 183 5.0 9.0 0.00 0.00 0.00 54 1005.7
20260505223247 86 136 3.0 6.0 0.00 0.00 0.00 53 1005.7
20260505222743 86 118 2.0 7.0 0.00 0.00 0.00 53 1005.7
20260505222239 87 341 6.0 8.0 0.00 0.00 0.00 52 1005.7
20260505221736 89 267 5.0 8.0 0.00 0.00 0.00 52 1005.7
20260505221233 92 171 1.0 1.0 0.00 0.00 0.00 50 1005.3
20260505220729 92 251 3.0 3.0 0.00 0.00 0.00 51 1005.3
20260505220227 91 202 1.0 2.0 0.00 0.00 0.00 52 1005.0
20260505215725 90 216 1.0 3.0 0.00 0.00 0.00 52 1005.3
20260505215223 90 292 3.0 3.0 0.00 0.00 0.00 52 1005.3
20260505214720 90 202 1.0 3.0 0.00 0.00 0.00 53 1005.3
20260505214218 90 175 2.0 2.0 0.00 0.00 0.00 52 1005.7
20260505213715 90 240 2.0 3.0 0.00 0.00 0.00 51 1005.3
20260505213212 91 248 2.0 3.0 0.00 0.00 0.00 50 1005.7
20260505212708 91 300 2.0 6.0 0.00 0.00 0.00 52 1005.7
20260505212205 91 311 4.0 6.0 0.00 0.00 0.00 50 1005.7
20260505211702 91 244 1.0 5.0 0.00 0.00 0.00 50 1005.7
20260505211159 91 190 1.0 5.0 0.00 0.00 0.00 51 1005.7
20260505210656 91 354 4.0 7.0 0.00 0.00 0.00 48 1005.7
20260505210153 92 298 3.0 5.0 0.00 0.00 0.00 49 1005.7
20260505205650 92 299 3.0 5.0 0.00 0.00 0.00 49 1006.0
20260505205148 92 284 4.0 6.0 0.00 0.00 0.00 49 1006.0
20260505204644 92 184 3.0 5.0 0.00 0.00 0.00 52 1006.0
20260505204143 92 204 2.0 5.0 0.00 0.00 0.00 52 1006.0
20260505203639 92 234 1.0 3.0 0.00 0.00 0.00 51 1006.3
20260505203136 92 241 2.0 3.0 0.00 0.00 0.00 51 1006.0
20260505202632 92 215 2.0 6.0 0.00 0.00 0.00 53 1006.3
20260505202128 91 134 2.0 3.0 0.00 0.00 0.00 51 1006.0
20260505201625 92 246 5.0 8.0 0.00 0.00 0.00 51 1006.3
20260505201123 92 209 2.0 2.0 0.00 0.00 0.00 54 1006.7
20260505200620 91 204 2.0 6.0 0.00 0.00 0.00 53 1006.3
20260505200117 90 212 3.0 5.0 0.00 0.00 0.00 52 1006.3
20260505195608 91 200 4.0 7.0 0.00 0.00 0.00 52 1006.3
20260505195105 91 202 1.0 5.0 0.00 0.00 0.00 55 1006.3
20260505194556 91 233 2.0 6.0 0.00 0.00 0.00 55 1006.7
20260505194052 91 185 4.0 7.0 0.00 0.00 0.00 54 1006.7
20260505193549 91 197 1.0 2.0 0.00 0.00 0.00 56 1006.7
20260505193046 90 197 3.0 7.0 0.00 0.00 0.00 56 1006.7
20260505192545 91 251 2.0 9.0 0.00 0.00 0.00 56 1006.7
20260505192042 91 201 2.0 3.0 0.00 0.00 0.00 56 1006.7
20260505191540 90 179 2.0 7.0 0.00 0.00 0.00 56 1006.7
20260505191038 90 318 3.0 10.0 0.00 0.00 0.00 57 1006.7
20260505190537 89 190 2.0 6.0 0.00 0.00 0.00 59 1006.7
20260505190034 89 294 3.0 7.0 0.00 0.00 0.00 58 1006.7
20260505185531 88 100 3.0 11.0 0.00 0.00 0.00 59 1006.7
20260505185027 88 231 1.0 3.0 0.00 0.00 0.00 59 1006.7
20260505184524 89 214 5.0 8.0 0.00 0.00 0.00 60 1006.7
20260505184021 88 96 3.0 8.0 0.00 0.00 0.00 59 1006.7
20260505183518 88 207 5.0 6.0 0.00 0.00 0.00 62 1007.0
20260505183015 88 136 2.0 8.0 0.00 0.00 0.00 64 1007.0
20260505182511 87 220 3.0 6.0 0.00 0.00 0.00 64 1006.7
20260505182009 87 334 3.0 8.0 0.00 0.00 0.00 64 1007.0
20260505181505 87 184 6.0 9.0 0.00 0.00 0.00 65 1007.0
20260505181002 87 214 4.0 7.0 0.00 0.00 0.00 65 1007.0
20260505180457 87 27 2.0 8.0 0.00 0.00 0.00 66 1007.0
20260505175955 86 155 1.0 7.0 0.00 0.00 0.00 69 1007.0
20260505175451 85 172 2.0 8.0 0.00 0.00 0.00 69 1007.0
20260505174948 86 123 3.0 7.0 0.00 0.00 0.00 69 1007.0
20260505174445 86 146 3.0 3.0 0.00 0.00 0.00 70 1007.4
20260505173941 84 186 3.0 6.0 0.00 0.00 0.00 69 1007.4
20260505173437 84 166 1.0 8.0 0.00 0.00 0.00 70 1007.4
20260505172934 84 163 3.0 5.0 0.00 0.00 0.00 71 1007.4
20260505172433 84 174 5.0 7.0 0.00 0.00 0.00 71 1007.4
20260505171932 83 191 4.0 7.0 0.00 0.00 0.00 72 1007.7
20260505171429 82 212 5.0 8.0 0.00 0.00 0.00 73 1007.4
20260505170926 82 194 2.0 7.0 0.00 0.00 0.00 74 1007.4
20260505170422 82 359 2.0 5.0 0.00 0.00 0.00 74 1007.4
20260505165918 82 174 2.0 5.0 0.00 0.00 0.00 74 1007.0
20260505165414 82 211 4.0 7.0 0.00 0.00 0.00 74 1007.7
20260505164909 82 189 3.0 6.0 0.00 0.00 0.00 74 1007.4
20260505164406 82 198 1.0 8.0 0.00 0.00 0.00 75 1007.4
20260505163904 82 186 4.0 7.0 0.00 0.00 0.00 75 1007.0
20260505163403 82 253 3.0 8.0 0.00 0.00 0.00 75 1007.0
20260505162901 82 159 2.0 3.0 0.00 0.00 0.00 75 1007.0
20260505162357 81 277 2.0 6.0 0.00 0.00 0.00 77 1007.0
20260505161854 80 83 3.0 8.0 0.00 0.00 0.00 77 1007.0
20260505161351 80 177 5.0 6.0 0.00 0.00 0.00 77 1006.7
20260505160848 80 210 2.0 5.0 0.00 0.00 0.00 78 1007.0
20260505160347 80 245 2.0 6.0 0.00 0.00 0.00 78 1006.7